Location: Tamazert
(32.6352°N, 5.2072°W)
Time: 11:51:38
(UTC+00:00)

Tiros 1 despin weight - Pass Details

Date: 14 October 2022
Orbit: 590 x 637 km, 48.2° (Epoch: 25 November)

Event Time Altitude Azimuth Distance (km) Brightness Sun altitude
Rises 11:09:49 0° 234° (SW) 2,805 ? 46.9°
Reaches altitude 10° 11:12:06 10° 236° (SW) 1,906 ? 47.1°
Maximum altitude 11:16:27 75° 321° (NW) 612 ? 47.4°
Drops below altitude 10° 11:20:51 10° 48° (NE) 1,921 ? 47.7°
Sets 11:23:09 0° 50° (NE) 2,830 ? 47.8°
